Home   Weather   Winnipeg   Past weeks
Flag for Canada

Past Weather in Winnipeg, Manitoba, Canada — Yesterday and Last 2 Weeks

Now
2 °F

Frigid.


Feels Like: -11 °F
Forecast: 1 / -13 °F
Wind: 7 mph from North

Location: Winnipeg The Forks Man

Current Time: Feb 18, 2019 at 12:32:54 am

Latest Report: Feb 17, 2019 at 11:00 pm


Visibility: N/A

Pressure: 30.51 "Hg

Humidity: 69%

Dew Point: -6 °F

Location of WinnipegLocation

Past Weather in Winnipeg — Graph

°F

Winnipeg Temperature Yesterday

Maximum temperature yesterday: 9 °F (at 3:00 pm)
Minimum temperature yesterday: -6 °F (at 7:00 am)
Average temperature yesterday: 1 °F

High & Low Weather Summary for the Past Weeks

 TemperatureHumidityPressure
High20 °F (Feb 12, 1:00 pm)93% (Feb 12, 4:00 am)30.91 "Hg (Feb 12, 4:00 am)
Low-20 °F (Feb 9, 6:00 am)54% (Feb 16, 4:00 pm)29.73 "Hg (Feb 14, 12:00 am)
Average-3 °F72%30.32 "Hg
* Reported Feb 2 11:00 pm — Feb 17 11:00 pm, Winnipeg. Weather by CustomWeather, © 2019

Note: Actual official high and low records may vary slightly from our data, if they occured in-between our weather recording intervals... More about our weather records

Advertising

Winnipeg Weather History for the Previous 24 Hours

Scroll right to see more
 ConditionsComfort  
Time TempWeatherWind HumidityBarometerVisibility
11:00 pm
Sun, Feb 17
2 °FFrigid.7 mph69%30.51 "HgN/A
10:00 pm2 °FFrigid.7 mph68%30.51 "HgN/A
9:00 pm3 °FFrigid.6 mph66%30.49 "HgN/A
8:00 pm4 °FFrigid.6 mph66%30.47 "HgN/A
7:00 pm5 °FFrigid.7 mph64%30.47 "HgN/A
6:00 pm6 °FFrigid.6 mph65%30.44 "HgN/A
5:00 pm8 °FFrigid.7 mph65%30.43 "HgN/A
4:00 pm8 °FFrigid.8 mph67%30.42 "HgN/A
3:00 pm9 °FFrigid.6 mph66%30.40 "HgN/A
2:00 pm7 °FFrigid.6 mph67%30.40 "HgN/A
1:00 pm6 °FFrigid.5 mph67%30.40 "HgN/A
12:00 pm4 °FFrigid.5 mph71%30.39 "HgN/A
11:00 am2 °FFrigid.3 mph73%30.40 "HgN/A
10:00 am-2 °FFrigid.7 mph79%30.40 "HgN/A
9:00 am-4 °FFrigid.5 mph79%30.38 "HgN/A
8:00 am-6 °FFrigid.2 mph78%30.37 "HgN/A
7:00 am-6 °FFrigid.3 mph78%30.35 "HgN/A
6:00 am-6 °FFrigid.6 mph79%30.34 "HgN/A
5:00 am-4 °FFrigid.3 mph77%30.33 "HgN/A
4:00 am-3 °FFrigid.3 mph83%30.31 "HgN/A
3:00 am-1 °FFrigid.2 mph77%30.30 "HgN/A
2:00 am-2 °FFrigid.3 mph77%30.29 "HgN/A
1:00 am-2 °FFrigid.3 mph77%30.29 "HgN/A
12:00 am-1 °FFrigid.2 mph74%30.28 "HgN/A
Weather by CustomWeather, © 2019

See weather overview